Simultaneous Nadir Overpasses (SNOs) Predictions

Prediction of SNOs between GOES-17 and METOP-B Satellite Orbit:

Table of predicted SNOs for the next 14.0 days since TLE Epoch: 7/3/2020
Index Date Time (GOES-17) GOES-17 Lat,Lon METOP-B Lat,Lon Distance(km) Time Diff (sec)
1 07/05/2020 06:48:35 -0.02,-137.18 -0.59,-139.81 299.49 80
2 07/06/2020 06:30:35 -0.02,-137.17 0.48,-134.80 269.02 80
3 07/07/2020 18:46:47 0.01,-137.17 0.48,-139.38 251.28 80
4 07/08/2020 18:28:47 0.00,-137.16 -0.60,-134.37 316.97 80
5 07/10/2020 06:45:07 0.01,-137.14 -0.38,-138.98 209.18 80
6 07/11/2020 06:27:07 0.01,-137.13 0.70,-133.97 359.00 80
7 07/12/2020 18:43:18 -0.01,-137.12 0.32,-138.54 161.80 80
8 07/13/2020 18:25:18 -0.00,-137.11 -0.81,-133.54 406.19 80
9 07/15/2020 06:41:38 -0.00,-137.08 -0.21,-138.14 120.41 80
10 07/16/2020 06:23:37 -0.02,-137.06 0.86,-133.13 447.26 80
11 07/17/2020 18:39:49 0.02,-137.03 0.16,-137.69 75.09 80
